Вернуться в каталог

STARLINK-31161

АктивенСвязьVLEO
NORAD 58795·PAYLOAD·🇺🇸 United States

Запущен Jan 15, 2024 с Cape Canaveral Space Force Station

Loading…

Ближайшие Пролёты (ближайшие 24 часа)

TLE

СвежийSource: CelesTrak SupGP

Эпоха: Sep 14, 2026, 22:14 UTC

1 58795C 24012J   26257.92687500 -.00016629  00000+0 -60233-3 0  2571
2 58795  43.0017 176.3463 0001301 263.2233 311.7861 15.27585940    11

Отслеживайте STARLINK-31161 в реальном времени с AllMySat

Download on the App Store